Погода в Новгороде

Погода в Новгороде : погода сейчас, прогноз погоды и архив. Всё, что Вы хотите узнать о погоде в Новгороде!

Хотите узнать прогноз погоды в Новгороде? Тогда Вам сюда: Погода в Новгороде

Поиск расширенной информации на нашем сайте:

Другие новости

Новости СМИ2

Главная страница сайта

Новости сайта

03.07.2017

Напоминаем, что на нашем специализированном сайте Метеоцентр.Азия вы можете получить высокодетализированные автоматические прогнозы погоды по пунктам России, СНГ и мира в авиационном формате (включающие направление и скорость ветра, видимость, явления погоды, количество и форму облачности, нижнюю и верхнюю границу облачности).


Погода в Новгороде - сегодня

Время (UTC), дата Ветер
(°,м/с) 
Видим.   Явления Облачность Т
(°С)
Тd
(°С)
f(%) Тe
(°С)
Pmin
(гПа)
dP
(гПа)
Po
(мм)
O2
(г/м3)
Тmin Tmax R s Состояние
почвы
09 12.02.18 160 (Ю) 4000 м  дымка  10/10 600 м 
[Sc]
-0.7 -2 91 -4  1016.4  760  307           
12 12.02.18 160 (Ю) 10 км    10/8 600 м средняя 
[Sc|Ac und]
+0.2 -1.5 88 -2  1016.6  0.2  760  306           
21 12.02.18 160 (Ю) 10 км  слаб. снег  10/10 300 м 
[Sc]
-2 -3.7 88 -4  1019  0.8  762  310           
03 13.02.18 150 (ЮВ) 4000 м  слаб. снег  10/10 300 м 
[Ns]
-2.3 -5.2 80 -5  1019.8  0.5  762  310  -2.4    0.5     
09 13.02.18 160 (Ю) 10 км    6/0 средняя, верхняя 
[Ac trans|Ci fib]
-6.2 -10.9 69 -10  1022  1.1  764  316           
12 13.02.18 160 (Ю) 20000 м    4/0 средняя, верхняя 
[Ac trans|Ci fib]
-4.2 -10.8 60 -6  1022.1  0.1  764  314           
15 13.02.18 160 (Ю) 20000 м    8/0 средняя, верхняя 
[Ac trans|Ci fib]
-5.5 -11.5 63 -7  1022.5  0.4  764  315      0.0     
21 13.02.18 160 (Ю) 10 км    8/0 средняя 
[Ac trans]
-7.8 -10.9 78 -11  1024.7  1.1  766  319           
00 14.02.18 160 (Ю) 10 км    8/0 средняя 
[Ac trans]
-7.8 -10.8 79 -11  1025.4  0.7  767  319           
09 14.02.18 150 (ЮВ) 10 км    8/0 верхняя 
[Ci]
-7.7 -11.4 75 -10  1029.1  1.3  769  320           
12 14.02.18 150 (ЮВ) 20000 м    8/0 средняя, верхняя 
[As trans|Cs]
-6 -10.9 68 -7  1029.2  0.1  769  318           
15 14.02.18 090 (В) 10 км    6/0 верхняя 
[Ci fib]
-8.8 -12.1 77 -9  1029.8  0.5  770  322           
21 14.02.18 120 (ЮВ) 10 км    3/0 верхняя 
[Cs]
-10.9 -12.4 89 -13  1031.3  0.8  771  325           
00 15.02.18 100 (В) 10 км    3/0 верхняя 
[Cs]
-11.6 -12.6 92 -14  1031.8  0.5  771  326           
09 15.02.18 150 (ЮВ) 20000 м    4/0 средняя, верхняя 
[Ac trans|Cs]
-9 -11.4 83 -11  1033.1  0.8  772  323           
12 15.02.18 150 (ЮВ) 20000 м    8/0 средняя, верхняя 
[Ac trans|Cc]
-7.6 -11 77 -7  1032.6  -0.5  772  321           
15 15.02.18 120 (ЮВ) 10 км    10/0 средняя 
[Ac und]
-6.6 -10.1 76 -6  1031.6  -1  771  319           
21 15.02.18 140 (ЮВ) 4000 м  слаб. снег  10/10 300 м 
[Ns]
-6.7 -7.9 91 -9  1029.9  -0.9  770  319           
03 16.02.18 180 (Ю) 4000 м  слаб. снег  10/10 300 м 
[Ns]
-6.5 -7.3 94 -10  1027.9  -1.1  768  318  -6.7       
09 16.02.18 180 (Ю) 4000 м  дымка{снег}  8/0 средняя, верхняя 
[Ac trans|Ci fib]
-7.7 -9 90 -10  1027.5  0.1  768  319           
21 16.02.18 140 (ЮВ) 4000 м  слаб. снег  10/10 300 м 
[Ns]
-3.8 -4.6 94 -6  1023.8  -0.9  765  313           
03 17.02.18 140 (ЮВ) 4000 м  слаб. снег  10/10 300 м 
[Ns]
-3.7 -4.4 95 -6  1022  -1  764  313  -5.1       
09 17.02.18 140 (ЮВ) 4000 м  слаб. снег  10/10 300 м 
[Ns]
-3.4 -5 89 -6  1021  -0.5  763  312           
21 17.02.18 070 (В) 4000 м  слаб. снег  10/10 300 м 
[Ns]
-2.5 -3.2 95 -2  1019.1  -0.2  762  310           
03 18.02.18 060 (СВ) 4000 м  слаб. снег  10/10 300 м 
[Ns]
-3.3 -3.8 96 -3  1018.8  -0.3  762  311  -3.3       
Время (UTC), дата Ветер
(°,м/с) 
Видим.   Явления Облачность Т
(°С)
Тd
(°С)
f(%) Тe
(°С)
Pmin
(гПа)
dP
(гПа)
Po
(мм)
O2
(г/м3)
Тmin Tmax R s Состояние
почвы

Для получения пояснительной информации подведите курсор к названию столбца.

ПОГОДА в Новгороде - архив

Всё, что Вы хотите узнать о погоде в Новгороде - удобно и подробно!

Выберите нужную дату (начиная с 1 января 2015* года) и нажмите кнопку "Найти".
Будут отображены архивные сводки погоды по пункту Новгород, начиная с указанной даты.


Отображать данные в формате CSV (для использования в таблицах Excel)


Внимание! Наш архив погоды предназначен исключительно для личного некоммерческого использования в познавательных целях. Если Вам необходимы официальные справки о состоянии погоды (для производственных, юридических, коммерческих и т.п. целей), обращайтесь в органы Росгидромета.

*Примечание: данная дата относится к архиву по метеостанциям СССР (Россия, СНГ, Балтия).
Архив по метеостанциям Зарубежной Европы и Азии (кроме Китая) хранится 10 дней, по другим регионам земного шара (Китай, Африка, Америка, Австралия, Океания) - 1 день.

Новгород - район местоположения метеостанции


Название, широта, долгота, высота метеостанции:
Новгород 58.6°ш. 31.2°д. 24 м над ур. моря [Российская Федерация]

Дополнительная информация

В oтличие oт бoльшинства пoгoдных сайтoв мы публикуем пoдрoбную метеoинфoрмацию в детальнoм прoфессиoнальнoм фoрмате.

Характеристики температуры и влажнoсти вoздуха измеряются на высoте 2 м в тени вдали oт зданий и деревьев.
Скoрoсть ветра измеряется на высoте 10 м (на урoвне рoста челoвека скoрoсть ветра ниже в 1.5-2 раза). Если метеoстанция нахoдится в гoрoде или в лесу, тo скoрoсть ветра занижена на 2-4 м/с пo сравнению с oткрытым местoм. Скoрoсть ветра над акватoриями крупных рек и oзёр, а также на вершинах хoлмoв на 2-5 м/с выше, чем в oбычных услoвиях.
Атмoсфернoе давление в разных тoчках местнoсти мoжет значительнo oтличаться oт давления на метеoстанции, в зависимoсти oт услoвий рельефа (при пoдъёме на 10 м давление пoнижается примернo на 1 мм рт.ст.).